When you browse on this site, cookies collect data to enhance your experience and personalize the content and advertising you see.
Visit our Privacy Policy to learn more. By continuing to use the site, you agree to this use of cookies and data.
  • In Sweden
  • List of Countries
  • For 7 days
  • Water Temperature
  • Satellite Maps
  • Weather Map
  • Weather Widgets
  • user-avatar
    Login

    Hourly Weather Novyy Shustruy

    Today, 24 May, Friday

    Time Temperature Precipitation Wind Pressure Humidity
    00:00 +15°C° 0.8 mm 2 mps 734 mmHg 91%
    01:00 +14°C° 0 mm 2 mps 735 mmHg 92%
    02:00 +12°C° 0 mm 3 mps 735 mmHg 94%
    03:00 +12°C° 0 mm 3 mps 735 mmHg 95%
    04:00 +12°C° 0 mm 4 mps 735 mmHg 94%
    05:00 +12°C° 0 mm 5 mps 736 mmHg 94%
    06:00 +11°C° 0 mm 6 mps 737 mmHg 93%
    07:00 +11°C° 0 mm 6 mps 737 mmHg 91%
    08:00 +11°C° 0 mm 6 mps 738 mmHg 89%
    09:00 +11°C° 0 mm 6 mps 739 mmHg 86%
    10:00 +12°C° 0 mm 5 mps 739 mmHg 83%
    11:00 +13°C° 0 mm 5 mps 740 mmHg 79%
    12:00 +13°C° 0 mm 5 mps 740 mmHg 76%
    13:00 +14°C° 0 mm 5 mps 740 mmHg 72%
    14:00 +14°C° 0 mm 5 mps 741 mmHg 67%
    15:00 +15°C° 0 mm 5 mps 741 mmHg 63%
    16:00 +14°C° 0 mm 5 mps 741 mmHg 64%
    17:00 +14°C° 0 mm 4 mps 742 mmHg 65%
    18:00 +13°C° 0 mm 4 mps 742 mmHg 66%
    19:00 +12°C° 0 mm 4 mps 742 mmHg 69%
    20:00 +10°C° 0 mm 4 mps 743 mmHg 73%
    21:00 +8°C° 0 mm 3 mps 743 mmHg 76%
    22:00 +8°C° 0 mm 3 mps 743 mmHg 76%
    23:00 +6°C° 0 mm 4 mps 744 mmHg 76%

    Tomorrow, 25 May, Saturday

    Time Temperature Precipitation Wind Pressure Humidity
    00:00 +6°C° 0 mm 4 mps 744 mmHg 75%
    01:00 +6°C° 0 mm 4 mps 744 mmHg 75%
    02:00 +5°C° 0 mm 4 mps 744 mmHg 75%
    03:00 +5°C° 0 mm 4 mps 745 mmHg 75%
    04:00 +5°C° 0 mm 4 mps 745 mmHg 73%
    05:00 +6°C° 0 mm 5 mps 745 mmHg 71%
    06:00 +6°C° 0 mm 5 mps 745 mmHg 70%
    07:00 +8°C° 0 mm 6 mps 745 mmHg 66%
    08:00 +9°C° 0 mm 6 mps 745 mmHg 62%
    09:00 +10°C° 0 mm 6 mps 745 mmHg 58%
    10:00 +13°C° 0 mm 6 mps 744 mmHg 57%
    11:00 +14°C° 0 mm 6 mps 744 mmHg 57%
    12:00 +15°C° 0 mm 6 mps 744 mmHg 56%
    13:00 +16°C° 0 mm 6 mps 743 mmHg 56%
    14:00 +16°C° 0 mm 6 mps 743 mmHg 57%
    15:00 +16°C° 0 mm 6 mps 743 mmHg 58%
    16:00 +16°C° 0 mm 6 mps 742 mmHg 61%
    17:00 +16°C° 0 mm 5 mps 742 mmHg 64%
    18:00 +16°C° 0 mm 5 mps 741 mmHg 68%
    19:00 +15°C° 0 mm 5 mps 741 mmHg 69%
    20:00 +14°C° 0 mm 5 mps 741 mmHg 70%
    21:00 +12°C° 0 mm 5 mps 741 mmHg 71%
    22:00 +12°C° 0 mm 5 mps 741 mmHg 69%
    23:00 +11°C° 0 mm 6 mps 741 mmHg 68%

    Day after tomorrow, 26 May, Sunday

    Time Temperature Precipitation Wind Pressure Humidity
    00:00 +11°C° 0 mm 6 mps 740 mmHg 66%
    01:00 +11°C° 0.1 mm 6 mps 740 mmHg 70%
    02:00 +11°C° 0.1 mm 6 mps 740 mmHg 73%
    03:00 +10°C° 0.1 mm 6 mps 740 mmHg 76%
    04:00 +10°C° 0.9 mm 6 mps 739 mmHg 79%
    05:00 +9°C° 0.9 mm 6 mps 739 mmHg 81%
    06:00 +9°C° 0.9 mm 5 mps 739 mmHg 84%
    07:00 +9°C° 1 mm 5 mps 739 mmHg 84%
    08:00 +9°C° 1 mm 5 mps 739 mmHg 85%
    09:00 +10°C° 1 mm 5 mps 739 mmHg 85%
    10:00 +13°C° 0.2 mm 5 mps 738 mmHg 82%
    11:00 +14°C° 0.2 mm 5 mps 738 mmHg 79%
    12:00 +16°C° 0.2 mm 6 mps 738 mmHg 76%
    13:00 +16°C° 0.1 mm 5 mps 738 mmHg 79%
    14:00 +16°C° 0.1 mm 5 mps 737 mmHg 81%
    15:00 +16°C° 0.1 mm 5 mps 737 mmHg 83%
    16:00 +16°C° 0 mm 5 mps 737 mmHg 83%
    17:00 +17°C° 0 mm 5 mps 736 mmHg 83%
    18:00 +18°C° 0 mm 4 mps 736 mmHg 83%
    19:00 +18°C° 0.2 mm 4 mps 736 mmHg 86%
    20:00 +17°C° 0.2 mm 4 mps 736 mmHg 89%
    21:00 +15°C° 0.2 mm 4 mps 736 mmHg 92%
    22:00 +14°C° 0 mm 3 mps 735 mmHg 94%
    23:00 +13°C° 0 mm 3 mps 735 mmHg 95%

    27 May, Monday

    Time Temperature Precipitation Wind Pressure Humidity
    00:00 +13°C° 0 mm 3 mps 735 mmHg 96%
    01:00 +13°C° 0 mm 2 mps 735 mmHg 96%
    02:00 +13°C° 0 mm 2 mps 735 mmHg 97%
    03:00 +12°C° 0 mm 2 mps 735 mmHg 97%
    04:00 +12°C° 0 mm 3 mps 735 mmHg 96%
    05:00 +13°C° 0 mm 3 mps 735 mmHg 96%
    06:00 +14°C° 0 mm 3 mps 736 mmHg 95%
    07:00 +15°C° 0 mm 4 mps 736 mmHg 91%
    08:00 +17°C° 0 mm 4 mps 737 mmHg 87%
    09:00 +19°C° 0 mm 5 mps 738 mmHg 82%
    10:00 +20°C° 0 mm 5 mps 738 mmHg 76%
    11:00 +21°C° 0 mm 6 mps 738 mmHg 69%
    12:00 +21°C° 0 mm 6 mps 739 mmHg 62%
    13:00 +21°C° 0 mm 6 mps 739 mmHg 61%
    14:00 +22°C° 0 mm 6 mps 740 mmHg 60%
    15:00 +22°C° 0 mm 6 mps 740 mmHg 59%
    16:00 +21°C° 0 mm 5 mps 740 mmHg 63%
    17:00 +21°C° 0 mm 5 mps 741 mmHg 68%
    18:00 +20°C° 0 mm 4 mps 741 mmHg 72%
    19:00 +19°C° 0 mm 3 mps 742 mmHg 77%
    20:00 +17°C° 0 mm 3 mps 742 mmHg 81%
    21:00 +14°C° 0 mm 3 mps 742 mmHg 86%
    22:00 +14°C° 0 mm 3 mps 743 mmHg 87%
    23:00 +14°C° 0 mm 2 mps 743 mmHg 89%

    28 May, Tuesday

    Time Temperature Precipitation Wind Pressure Humidity
    00:00 +14°C° 0 mm 2 mps 743 mmHg 91%
    01:00 +14°C° 0 mm 2 mps 744 mmHg 91%
    02:00 +13°C° 0 mm 2 mps 744 mmHg 91%
    03:00 +13°C° 0 mm 2 mps 744 mmHg 92%
    04:00 +14°C° 0 mm 2 mps 744 mmHg 90%
    05:00 +14°C° 0 mm 2 mps 745 mmHg 88%
    06:00 +15°C° 0 mm 2 mps 745 mmHg 86%
    07:00 +17°C° 0 mm 2 mps 745 mmHg 79%
    08:00 +18°C° 0 mm 2 mps 745 mmHg 72%
    09:00 +20°C° 0 mm 2 mps 746 mmHg 65%
    10:00 +21°C° 0 mm 3 mps 746 mmHg 62%
    11:00 +22°C° 0 mm 3 mps 746 mmHg 60%
    12:00 +24°C° 0 mm 3 mps 746 mmHg 57%
    13:00 +24°C° 0 mm 3 mps 746 mmHg 58%
    14:00 +25°C° 0 mm 3 mps 746 mmHg 58%
    15:00 +25°C° 0 mm 3 mps 746 mmHg 58%
    16:00 +25°C° 0 mm 3 mps 745 mmHg 62%
    17:00 +25°C° 0 mm 2 mps 745 mmHg 65%
    18:00 +25°C° 0 mm 2 mps 745 mmHg 69%
    19:00 +23°C° 0 mm 2 mps 746 mmHg 74%
    20:00 +21°C° 0 mm 2 mps 746 mmHg 80%
    21:00 +19°C° 0 mm 2 mps 746 mmHg 85%
    22:00 +19°C° 0 mm 2 mps 746 mmHg 87%
    23:00 +18°C° 0 mm 2 mps 746 mmHg 90%

    29 May, Wednesday

    Time Temperature Precipitation Wind Pressure Humidity
    00:00 +18°C° 0 mm 2 mps 746 mmHg 92%
    01:00 +18°C° 0 mm 2 mps 746 mmHg 92%
    02:00 +17°C° 0 mm 2 mps 746 mmHg 93%
    03:00 +17°C° 0 mm 3 mps 746 mmHg 94%
    04:00 +18°C° 0 mm 2 mps 747 mmHg 92%
    05:00 +19°C° 0 mm 2 mps 747 mmHg 91%
    06:00 +19°C° 0 mm 2 mps 747 mmHg 89%
    07:00 +21°C° 0 mm 3 mps 747 mmHg 84%
    08:00 +24°C° 0 mm 3 mps 747 mmHg 78%
    09:00 +25°C° 0 mm 3 mps 747 mmHg 73%
    10:00 +26°C° 0.1 mm 3 mps 747 mmHg 69%
    11:00 +27°C° 0.1 mm 4 mps 747 mmHg 66%
    12:00 +28°C° 0.1 mm 4 mps 747 mmHg 62%
    13:00 +28°C° 0.1 mm 4 mps 747 mmHg 61%
    14:00 +28°C° 0.1 mm 4 mps 746 mmHg 60%
    15:00 +29°C° 0.1 mm 4 mps 746 mmHg 59%
    16:00 +28°C° 0.1 mm 4 mps 746 mmHg 63%
    17:00 +28°C° 0.1 mm 3 mps 746 mmHg 67%
    18:00 +28°C° 0.1 mm 2 mps 746 mmHg 71%
    19:00 +26°C° 0 mm 2 mps 746 mmHg 75%
    20:00 +24°C° 0 mm 3 mps 746 mmHg 78%
    21:00 +22°C° 0 mm 3 mps 746 mmHg 82%
    22:00 +21°C° 0 mm 2 mps 746 mmHg 84%
    23:00 +20°C° 0 mm 2 mps 746 mmHg 86%
    Show more